Home   Weather   Linköping   Past weeks

Flag for Sweden Past Weather in Linköping, Sweden — Yesterday and Last 2 Weeks

41 °F

Drizzle. Broken clouds.

Feels Like: 36 °F
Forecast: 36 / 45 °F
Wind: 7 mph from Northeast

Location: Linkoping / Saab

Current Time: Oct 25, 2016 at 10:35:43 AM

Latest Report: Oct 25, 2016 at 10:20 AM

Visibility: N/A

Pressure: 30.18 "Hg

Humidity: 93%

Dew Point: 39 °F

Location of LinköpingLocation

Past Weather in Linköping — Graph


Linköping Temperature Yesterday

Maximum temperature yesterday: 45 °F (at 11:20 AM)
Minimum temperature yesterday: 41 °F (at 12:20 AM)
Average temperature yesterday: 43 °F

High & Low Weather Summary for the Past Weeks

High48 °F (Oct 17, 2:50 PM)100% (Oct 17, 9:20 AM)30.54 "Hg (Oct 17, 9:20 AM)
Low37 °F (Oct 22, 8:20 AM)71% (Oct 10, 3:50 PM)30.09 "Hg (Oct 19, 1:50 AM)
Average44 °F88%30.33 "Hg
* Reported Oct 10 9:20 AM — Oct 25 9:20 AM, Linköping, Weather by CustomWeather, © 2016

Note: Actual official high and low records may vary slightly from our data, if they occured in-between our weather recording intervals... More about our weather records


Linköping Weather History for the Previous 24 Hours

Scroll right to see more
Time TempWeatherWind HumidityBarometerVisibility
9:20 AM
Tue, Oct 25
39 °FDrizzle. Broken clouds.7 mph100%30.18 "HgN/A
8:50 AM39 °FBroken clouds.6 mph100%30.18 "HgN/A
8:20 AM39 °FMostly cloudy.7 mph100%30.18 "HgN/A
7:50 AM39 °FPassing clouds.5 mph100%30.18 "HgN/A
7:20 AM39 °FPassing clouds.7 mph100%30.18 "HgN/A
6:50 AM39 °FPartly cloudy.7 mph100%30.18 "HgN/A
6:20 AM41 °FPassing clouds.6 mph100%30.18 "HgN/A
5:50 AM41 °FPassing clouds.8 mph100%30.18 "Hg5 mi
5:20 AM41 °FDrizzle. Mostly cloudy.8 mph100%30.18 "Hg4 mi
4:50 AM41 °FLight rain. Partly cloudy.8 mph100%30.18 "Hg3 mi
4:20 AM41 °FPartly cloudy.7 mph100%30.18 "Hg4 mi
3:50 AM41 °FLight rain. Overcast.7 mph100%30.18 "Hg5 mi
3:20 AM41 °FFog.7 mph100%30.21 "Hg5 mi
2:50 AM41 °FLow clouds.7 mph100%30.21 "HgN/A
2:20 AM41 °FPassing clouds.8 mph100%30.21 "Hg3 mi
1:50 AM41 °FPartly cloudy.9 mph100%30.21 "Hg2 mi
1:20 AM41 °FLight rain. Passing clouds.9 mph100%30.21 "Hg3 mi
12:50 AM41 °FPartly cloudy.9 mph100%30.24 "Hg2 mi
12:20 AM41 °FPartly cloudy.9 mph100%30.24 "Hg2 mi
11:50 PM
Mon, Oct 24
41 °FLight rain. Passing clouds.6 mph100%30.24 "Hg5 mi
11:20 PM41 °FPartly cloudy.7 mph100%30.24 "Hg6 mi
10:50 PM41 °FFog.6 mph100%30.24 "Hg6 mi
10:20 PM41 °FLight rain. Partly cloudy.6 mph100%30.24 "Hg5 mi
9:50 PM41 °FMostly cloudy.6 mph100%30.27 "HgN/A
9:20 PM43 °FLight rain. Partly cloudy.6 mph93%30.27 "Hg6 mi
8:50 PM43 °FDrizzle. Low clouds.7 mph93%30.27 "Hg6 mi
8:20 PM43 °FOvercast.8 mph100%30.27 "HgN/A
7:50 PM43 °FDrizzle. Overcast.8 mph93%30.27 "HgN/A
7:20 PM43 °FMostly cloudy.7 mph93%30.27 "HgN/A
6:50 PM43 °FMostly cloudy.8 mph93%30.27 "HgN/A
6:20 PM43 °FOvercast.10 mph100%30.27 "HgN/A
5:50 PM43 °FMostly cloudy.9 mph100%30.27 "HgN/A
5:20 PM45 °FOvercast.10 mph93%30.27 "HgN/A
4:50 PM45 °FDrizzle. Mostly cloudy.10 mph93%30.24 "HgN/A
4:20 PM45 °FMore clouds than sun.12 mph93%30.24 "HgN/A
3:50 PM45 °FBroken clouds.12 mph93%30.24 "HgN/A
3:20 PM45 °FDrizzle. Broken clouds.13 mph93%30.24 "HgN/A
2:50 PM45 °FOvercast.13 mph93%30.24 "HgN/A
2:20 PM45 °FDrizzle. Broken clouds.12 mph93%30.24 "HgN/A
1:50 PM45 °FLight rain. Partly sunny.14 mph93%30.24 "HgN/A
1:20 PM45 °FLight rain. Mostly cloudy.13 mph100%30.24 "Hg6 mi
12:50 PM45 °FMostly cloudy.12 mph100%30.24 "HgN/A
12:20 PM45 °FDrizzle. Broken clouds.12 mph100%30.24 "HgN/A
11:50 AM45 °FLight rain. More clouds than sun.12 mph100%30.24 "Hg6 mi
11:20 AM45 °FLight rain. Broken clouds.12 mph93%30.27 "HgN/A
10:50 AM43 °FLight rain. Broken clouds.12 mph100%30.27 "HgN/A
10:20 AM43 °FLight rain. Mostly cloudy.12 mph100%30.27 "HgN/A
Weather by CustomWeather, © 2016

See weather overviewHow to use our weather pages